This is the latest recevied weather packets stored in our database for station/object WV5G-13. If no packets are shown the sender has not sent any weather packets the latest 10 day(s).
| Time | Temp. | Humidity | Pressure | Rain* | Wind** | Luminosity | Snow |
|---|---|---|---|---|---|---|---|
| 1777565300 | 12.78° C | 61% | 1015.5 hPa | 0 mm | - | 735 W/m² | - |
| 1777564995 | 12.22° C | 63% | 1015.5 hPa | 0 mm | - | 552 W/m² | - |
| 1777564691 | 11.67° C | 64% | 1015.2 hPa | 0 mm | - | 354 W/m² | - |
| 1777564386 | 11.67° C | 64% | 1015.2 hPa | 0 mm | - | 410 W/m² | - |
| 1777564083 | 11.67° C | 64% | 1015.5 hPa | 0 mm | - | 429 W/m² | - |
| 1777563779 | 11.67° C | 64% | 1015.4 hPa | 0 mm | - | 414 W/m² | - |
| 1777563475 | 11.67° C | 64% | 1015.5 hPa | 0 mm | - | 392 W/m² | - |
| 1777563175 | 11.67° C | 65% | 1015.2 hPa | 0 mm | - | 390 W/m² | - |
| 1777562871 | 11.11° C | 66% | 1015.2 hPa | 0 mm | - | 398 W/m² | - |
| 1777562568 | 11.11° C | 67% | 1015.4 hPa | 0 mm | - | 376 W/m² | - |
| 1777562266 | 11.11° C | 67% | 1015.5 hPa | 0 mm | - | 414 W/m² | - |
| 1777561963 | 11.67° C | 66% | 1015.5 hPa | 0 mm | - | 374 W/m² | - |
| 1777561661 | 11.67° C | 65% | 1015.5 hPa | 0 mm | - | 476 W/m² | - |
| 1777561356 | 11.11° C | 67% | 1015.6 hPa | 0 mm | - | 516 W/m² | - |
| 1777561051 | 11.11° C | 68% | 1015.7 hPa | 0 mm | - | 389 W/m² | - |
| 1777560747 | 10.56° C | 69% | 1015.4 hPa | 0 mm | - | 377 W/m² | - |
| 1777560444 | 10.56° C | 70% | 1015.6 hPa | 0 mm | - | 482 W/m² | - |
| 1777560142 | 10.56° C | 69% | 1015.8 hPa | 0 mm | - | 339 W/m² | - |
| 1777559838 | 10.56° C | 71% | 1015.6 hPa | 0 mm | - | 604 W/m² | - |
| 1777559534 | 10° C | 73% | 1015.9 hPa | 0 mm | - | 335 W/m² | - |
| 1777559231 | 9.44° C | 74% | 1015.9 hPa | 0 mm | - | 170 W/m² | - |
| 1777558926 | 9.44° C | 75% | 1016 hPa | 0 mm | - | 158 W/m² | - |
| 1777558623 | 9.44° C | 75% | 1016 hPa | 0 mm | - | 172 W/m² | - |
| 1777558318 | 9.44° C | 74% | 1016.2 hPa | 0 mm | - | 139 W/m² | - |
| 1777558015 | 9.44° C | 75% | 1016.1 hPa | 0 mm | - | 136 W/m² | - |
* Rain latest hour (hover to see other rain measurements)
** Current wind speed in m/s (hover to see current wind gust speed)